星链-31986 (STARLINK-31986 )

导读

STARLINK-31986是美国SpaceX公司星链星座的卫星,于2024年6月8日发射,属于第二代低轨互联网卫星项目,运行在距地面约550公里的近地轨道。它搭载了改进的相控阵天线与激光星间链路技术,能提供更高通信带宽,可为全球偏远地区、海洋场景等提供高速互联网接入服务,也支持手机直连,大幅降低通信延迟,进一步完善星链网络的覆盖能力与服务稳定性。

Basic Information
目录编号:
60019
目录名称:
STARLINK-31986
国际标识:
2024-111D
轨道中心:
EARTH
卫星名称:
星链-31986
卫星全名:
星链-31986 (STARLINK-31986 )
卫星状态:
在轨 (已飞行740 天)
发射日期:
2024-06-08 UTC
国别 :
美国 (US)
星等 :
--
Orbit Information
数据来源 国际轨道数据 AOE轨道数据
星历时间 2026-06-18T02:13:22+0800
9小时前
查看轨道信息
2026-06-16T07:00:00+0800
2天前
查看轨道信息
半长轴 6853.363km 6853.396km
偏心率 0.0000997 0.0001105
轨道倾角 53.161° 53.161°
近地点辐角 100.213° 67.278°
升交点赤经 330.877° 339.246°
平近点角 259.899° 86.395°
近地点 474.542km 474.501km
远地点 475.91km 476.017km
周期 94.106分钟 94.106分钟
每日圈数 15.301964 15.301856
Detailed Information
固有亮度:
5
最大亮度:
1.5
卫星平台:
Starlink v2.0 mini
覆盖范围:
全球
运营商:
太空探索技术公司
运营商所在国:
美国
制造商(研发单位):
太空探索技术公司
制造商所在国:
美国
使用方式:
暂无
Satellite Introduction
星链(Starlink)计划是由太空探索技术公司(SpaceX)提出的一个巨型低轨卫星互联网星座项目,计划在2019年至2024年间在太空搭建由约1.2万颗卫星组成的“星链”网络,其中1584颗将部署在地球上空550千米处的近地轨道,并从2020年开始工作。该卫星仍在工作。
2D Orbit Map
3D Orbit Map
Orbit Altitude Analysis Chart
Orbit Inclination Analysis Chart
Orbit Comprehensive Analysis Chart
View Comprehensive Chart